Regional Weather Roundup
Issued by NWS Mobile, AL

Home | Current Version | Previous Version | Text Only | Print | Product List | Glossary On
Versions: 1 2 3 4 5 6 7 8 9 10 11 12 13 14 15 16 17 18 19 20 21 22 23 24 25 26 27 28 29 30 31 32 33 34 35 36 37 38 39 40 41 42 43 44 45 46 47 48 49 50
000
ASUS44 KMOB 161110
RWRMOB
REGIONAL WEATHER ROUNDUP
NATIONAL WEATHER SERVICE MOBILE AL
600 AM CDT TUE SEP 16 2014

NOTE: "FAIR" INDICATES FEW OR NO CLOUDS BELOW 12,000 FEET WITH NO
      SIGNIFICANT WEATHER AND/OR OBSTRUCTIONS TO VISIBILITY.

  * THESE STATIONS ARE PART OF THE UNIVERSITY OF SOUTH ALABAMA
    MESONET AND ARE NOT UNDER NWS OR FAA QUALITY CONTROL.

ALZ061>064-161200-
COASTAL ALABAMA

CITY           SKY/WX    TMP DP  RH WIND       PRES   REMARKS
MOBILE REG APT MOCLDY    73  73 100 N3        30.07R FOG
BROOKLEY FIELD CLEAR     75  75 100 NW5       30.07R
USA CAMPUS*      N/A     73  73 100 CALM      30.06R
DOG RIVER*       N/A     77  75  94 CALM      30.05S


CITY           SKY/WX    TMP DP  RH WIND       PRES   REMARKS
MOUNT VERNON*    N/A     68  66  94 CALM      30.07R
SARALAND*      NOT AVBL
BAY MINETTE*   NOT AVBL
LOXLEY*          N/A    N/A N/A N/A VRB2      30.05S
ROBERTSDALE*     N/A    N/A N/A N/A CALM      30.05S
FAIRHOPE*        N/A     73  73 100 CALM      30.05R
ELBERTA*       NOT AVBL
FOLEY*         NOT AVBL
GRAND BAY*       N/A     73  72  94 CALM      30.04R
DAUPHIN ISLND* NOT AVBL
BON SCOUR NWR* NOT AVBL
GULF SHORES    MOCLDY    76  75  96 CALM      30.05R

$$

ALZ051>060-161200-
INTERIOR SOUTHWEST AND SOUTH CENTRAL ALABAMA

CITY           SKY/WX    TMP DP  RH WIND       PRES   REMARKS
GREENVILLE     FOG       74  72  93 N5        30.07R VSB 3/4
EVERGREEN      MOCLDY    74  72  93 NW3       30.07R
CASTLEBERRY*   NOT AVBL
ATMORE*          N/A     72  72 100 N2        30.07S
DIXIE*         NOT AVBL
ANDALUSIA/OPP  PTCLDY    77  72  84 CALM      30.06R
ANDALUSIA*     NOT AVBL
FLORALA APT    FOG       73  72  94 CALM      30.08R VSB 3/4
FLORALA*         N/A     72  70  94 CALM      30.03R

$$

FLZ001>006-161200-
WESTERN FLORIDA PANHANDLE

CITY           SKY/WX    TMP DP  RH WIND       PRES   REMARKS
PENSACOLA      MOCLDY    73  73 100 CALM      30.04S
NAS PENSACOLA  MOCLDY    75  74  96 NW3       30.04S
MILTON         PTCLDY    73  70  90 CALM      30.05S
WHTNG S FIELD  PTCLDY    73  71  93 CALM      30.05S


CITY           SKY/WX    TMP DP  RH WIND       PRES   REMARKS
WALNUT HILL*   NOT AVBL
JAY*           NOT AVBL
DUKE FIELD     MOCLDY    74  74 100 CALM      30.05S
CRESTVIEW      PTCLDY    72  71  97 CALM      30.07R
VALPARAISO     PTCLDY    77  74  93 CALM      30.05S
DESTIN         MOCLDY    80  76  87 CALM      30.04F

$$

MSZ076-079-161200-
INTERIOR SOUTHEAST MISSISSIPPI

CITY           SKY/WX    TMP DP  RH WIND       PRES   REMARKS
LEAKESVILLE*     N/A     70  68  94 CALM        N/A
AGRICOLA*      NOT AVBL

$$

MARINE OBSERVATIONS

STATION/POSITION TIME  TEMP    WIND        PRES    WAVE
                       AIR SEA DIR/SP/G            HT/PER
                 (UTC) (F)     (DEG/KT/KT) (MB)    (FT/S)
PASCAGOULA       1100   77     340/  4/  6 1017.4
PETIT BOIS ISLND 1100   82     330/  4/  6 1017.6
GRAND BAY        1000   78     360/  2     1018.0S
KATRINA CUT      1000   82     310/  4     1018.0S
CEDAR POINT      1000   80     350/  2     1017.6F
E DAUPHIN ISLAND 0959   83     320/  3/  4 1017.3R
MIDDLE BAY LIGHT 1000   81     100/  4     1016.6S
USCG MOBILE BAY  1100   77 88  340/  3/  4 1016.6
STATE DOCKS      1100   78 87              1017.3
MEAHER PARK      1000   78      10/  1     1017.3R
WEEKS BAY        1000   75                   N/A
12 S ORANGE BCH  1100   81 86  290/  8/ 12 1017.6R   3/ 7
PENSACOLA BAY    1100   79 87  360/  2/  3 1017.4
64 S DAUPHIN ISL 1047   81 85  260/ 16/ 23 1018.3R   3/ 6
67 S FORT MORGAN 1000   80     VRB  8      1018.0R

$$

SELECTED LOCATIONS ACROSS THE REGION

CITY           SKY/WX    TMP DP  RH WIND       PRES   REMARKS
NEW ORLEANS    PTCLDY    76  74  93 CALM      30.05S
GULFPORT       CLEAR     75  72  90 CALM      30.04S
PASCAGOULA AP  FOG       74  74 100 N3        30.05S VSB 1/4
PASCAGOULA*      N/A     75  75 100 CALM      30.05R
HATTIESBURG    PTCLDY    73  71  93 NE3       30.08R
LAUREL         PTCLDY    70  66  88 CALM      30.09R
MERIDIAN       PTCLDY    71  70  96 CALM      30.08R
JACKSON        MOCLDY    72  70  93 N5        30.08S
MONTGOMERY     CLOUDY    74  71  91 N5        30.07R
TROY           CLOUDY    73  72  96 CALM      30.08R FOG
KINSTON*       NOT AVBL
GENEVA*          N/A     70  68  94 CALM      30.07S
ASHFORD*       NOT AVBL
DOTHAN         PTCLDY    73  73 100 CALM      30.10S FOG
PANAMA CITY    CLOUDY    77  74  90 SW3       30.05R

$$



USA.gov is the U.S. government's official web portal to all federal, state and local government web resources and services.